Погода в Твери

Погода в Твери : погода сейчас, прогноз погоды и архив. Всё, что Вы хотите узнать о погоде в Твери!

Хотите узнать прогноз погоды в Твери? Тогда Вам сюда: Погода в Твери

Поиск расширенной информации на нашем сайте:

Другие новости

Новости СМИ2

Главная страница сайта

Новости сайта

03.07.2017

Напоминаем, что на нашем специализированном сайте Метеоцентр.Азия вы можете получить высокодетализированные автоматические прогнозы погоды по пунктам России, СНГ и мира в авиационном формате (включающие направление и скорость ветра, видимость, явления погоды, количество и форму облачности, нижнюю и верхнюю границу облачности).


Погода в Твери - сегодня

Время (UTC), дата Ветер
(°,м/с) 
Видим.   Явления Облачность Т
(°С)
Тd
(°С)
f(%) Тe
(°С)
Pmin
(гПа)
dP
(гПа)
Po
(мм)
O2
(г/м3)
Тmin Tmax R s Состояние
почвы
03 16.08.18 350 (С) 4000 м  слаб. морось{ливн. осадки}  10/10 200 м 
[St]
+14.8 +13.7 93 +23  1013.6  747  283  +14.8       
06 16.08.18 340 (С) 4000 м  слаб. морось{ливн. осадки}  10/10 100 м 
[St]
+14.9 +13.4 91 +22  1015.7  2.2  749  283  +14.8      влажная 
09 16.08.18 040 (СВ) 10 км  {морось}  10/10 300 м 
[St]
+16.7 +13.3 80 +24  1017.5  1.8  750  282           
15 16.08.18 тихо ()   10 км    4/3 600 м средняя 
[Sc|Ac trans]
+21 +11.3 54 +24  1019.3  0.5  752  279      0.0     
21 16.08.18 тихо ()   10 км    ясно 
+11.7 +10.3 91 +13  1022.6  1.2  754  289           
00 17.08.18 тихо ()   10 км    ясно 
+9.1 +7.8 92 +9  1023.8  1.1  755  293           
03 17.08.18 тихо ()   10 км    ясно 
+8.8 +7 88 +9  1025.4  1.5  756  294  +7.6         
09 17.08.18 080 (В) 10 км    3/3 600 м 
[Cu hum]
+21.2 +6.8 39 +21  1025.2  0.1  756  282           
12 17.08.18 090 (В) 10 км    4/3 600 м верхняя 
[Cu hum|Ci fib]
+22.3 +6.8 37 +22  1024.5  -0.7  756  280           
15 17.08.18 080 (В) 10 км    4/0 средняя 
[Ac trans]
+21.7 +7.5 40 +22  1023.7  -0.8  755  281           
21 17.08.18 тихо ()   10 км    ясно 
+10.6 +8.2 85 +11  1024.6  0.2  755  291           
00 18.08.18 тихо ()   10 км    ясно 
+8.7 +7.3 91 +9  1025  0.3  755  294           
03 18.08.18 тихо ()   10 км    ясно 
+9.7 +7.6 87 +10  1025.1  0.2  755  293  +7.5         
09 18.08.18 180 (Ю) 10 км    8/5 1000 м верхняя 
[Cu med, cong|Ci fib]
+22.7 +8.9 41 +23  1023.8  -0.7  755  279           
15 18.08.18 тихо ()   10 км    3/3 1000 м 
[Cu hum]
+22.3 +9.5 44 +23  1021.9  -1.3  754  279           
21 18.08.18 тихо ()   10 км    ясно 
+12.3 +9.9 85 +13  1022.3  0.2  754  289           
00 19.08.18 тихо ()   10 км    3/0 средняя 
[Ac trans]
+10.8 +8.7 87 +11  1022.1  -0.3  753  290           
03 19.08.18 090 (В) 10 км    8/3 1000 м средняя 
[Sc|Ac trans]
+12.5 +10.8 89 +16  1021  -0.9  753  288  +10.6         
09 19.08.18 140 (ЮВ) 10 км    9/6 1000 м средняя 
[Sc|Ac trans]
+21.6 +13 58 +27  1018  -1.7  751  278           
12 19.08.18 200 (Ю) 10 км    9/3 1000 м средняя 
[Sc|Ac trans]
+25.7 +13.1 46 +31  1015.7  -2  749  273           
21 19.08.18 220 (ЮЗ) 10 км  {ливн. осадки}  6/3 600 м средняя 
[Sc|Ac trans]
+17.7 +15.8 89 +29  1014.6  -0.3  748  280           
09 20.08.18 240 (ЮЗ) 10 км    9/8 600 м средняя 
[Sc|Ac und]
+19.6 +14.5 72 +29  1014.5  -0.2  748  278           
12 20.08.18 230 (ЮЗ) 10 км    9/8 600 м средняя 
[Sc|Ac und]
+20.9 +14.3 66 +28  1013.6  -0.8  748  277           
15 20.08.18 210 (ЮЗ) 10 км    9/5 600 м кучево-дожд., средняя 
[Cb cap|Ac und]
+21 +14.5 66 +29  1012.4  -1.2  747  276           
21 20.08.18 200 (Ю) 10 км    9/5 600 м средняя 
[Sc|Ac und]
+17.8 +15.2 85 +28  1009.9  -1.7  745  278           
Время (UTC), дата Ветер
(°,м/с) 
Видим.   Явления Облачность Т
(°С)
Тd
(°С)
f(%) Тe
(°С)
Pmin
(гПа)
dP
(гПа)
Po
(мм)
O2
(г/м3)
Тmin Tmax R s Состояние
почвы

Для получения пояснительной информации подведите курсор к названию столбца.

ПОГОДА в Твери - архив

Всё, что Вы хотите узнать о погоде в Твери - удобно и подробно!

Выберите нужную дату (начиная с 1 января 2015* года) и нажмите кнопку "Найти".
Будут отображены архивные сводки погоды по пункту Тверь, начиная с указанной даты.


Отображать данные в формате CSV (для использования в таблицах Excel)


Внимание! Наш архив погоды предназначен исключительно для личного некоммерческого использования в познавательных целях. Если Вам необходимы официальные справки о состоянии погоды (для производственных, юридических, коммерческих и т.п. целей), обращайтесь в органы Росгидромета.

*Примечание: данная дата относится к архиву по метеостанциям СССР (Россия, СНГ, Балтия).
Архив по метеостанциям Зарубежной Европы и Азии (кроме Китая) хранится 10 дней, по другим регионам земного шара (Китай, Африка, Америка, Австралия, Океания) - 1 день.

Тверь - район местоположения метеостанции


Название, широта, долгота, высота метеостанции:
Тверь (город) 56.8°ш. 35.7°д. 137 м над ур. моря [Российская Федерация]

Дополнительная информация

В oтличие oт бoльшинства пoгoдных сайтoв мы публикуем пoдрoбную метеoинфoрмацию в детальнoм прoфессиoнальнoм фoрмате.

Характеристики температуры и влажнoсти вoздуха измеряются на высoте 2 м в тени вдали oт зданий и деревьев.
Скoрoсть ветра измеряется на высoте 10 м (на урoвне рoста челoвека скoрoсть ветра ниже в 1.5-2 раза). Если метеoстанция нахoдится в гoрoде или в лесу, тo скoрoсть ветра занижена на 2-4 м/с пo сравнению с oткрытым местoм. Скoрoсть ветра над акватoриями крупных рек и oзёр, а также на вершинах хoлмoв на 2-5 м/с выше, чем в oбычных услoвиях.
Атмoсфернoе давление в разных тoчках местнoсти мoжет значительнo oтличаться oт давления на метеoстанции, в зависимoсти oт услoвий рельефа (при пoдъёме на 10 м давление пoнижается примернo на 1 мм рт.ст.).